COSMOS 1691 DEB, 16266

Orbit data source: Space-Track

COSMOS 1691 DEB, 16266 is space debris in LEO originally from a launch on Wed, 09 Oct 1985 UTC launched from the Plesetsk Missile And Space Complex (PKMTR). Debris objects in space refer to the collection of defunct objects orbiting the Earth. Examples of debris include non-operational satellites, rocket bodies, and fragments generated from explosions, collisions, or faulty payload assembly.

Loading next visibility...
Identifier
16266, 1985-094K
Orbit
LEO
Country
Flag of CISCIS
Related business
Manufacturer
Unknown
Mission
Spacecraft
Bus & Motor
Unknown
Mass
Unknown
Launch date (UTC)
1985-10-09 (41 years ago)
Launch vehicle
Unknown
Launch site
Plesetsk Missile And Space Complex (PKMTR)
Object type
Payload
Rocket body
Debris
Shape & HBR
Unknown shape, 0.2 m
Radar Cross Section
Medium (>0.1 m² and <1 m²)

Expand to show TLE details & history
Last TLE update: 2 days ago

TLE from 2 days ago
0 COSMOS 1691 DEB
1 16266U 85094K   26171.16316255  .00000064  00000-0  28248-3 0  9990
2 16266  82.6010 244.4382 0003384 358.8713  28.0949 12.66733378877864
Epoch: 2026-06-20T03:54Z
TLE epoch observation values (Epoch: 2026-06-20T03:54:57.244Z)
Latitude
26.77585°
Longitude
-78.94349°
Altitude
1,396.082 km
Speed
7.165 km/s
True Right ascension
16h 32m 42s
True Declination
26° 38' 57"
Sunlit
Object was in full shadow at epoch
Visualization orbit readout
Latitude
Unknown
Longitude
Unknown
Altitude
Unknown
Speed
Unknown
Apparent Right ascension
Unknown
Apparent Declination
Unknown
Sunlit
N/A
Visualization observer readout
Local Sidereal Time
00:51:26
Azimuth
Unknown
Elevation
Unknown
Doppler factor
Unknown
Orbital elements
Apogee altitude
1,395.218 km
Perigee altitude
1,389.959 km
Semi-major axis
7,770.726 km
Eccentricity
0.00034
Inclination
82.601°
RAAN
244.4382°
Arg. of periapsis
358.8713°
True anomaly
28.11317°
Mean anomaly
28.0949°
Eccentric anomaly
28.10403°
Mean motion
3.16848 °/min
Orbital period
113.62 mins
BSTAR
0.00028248
Loading maneuver chart data...
Computing Atmospheric mass density...
Loading historical data...
Loading historical data...
Loading historical data...
Loading historical data...
Loading historical data...
Loading historical data...
Loading historical data...

Documentation

Showing up to 5 results
|